Location: Balsareny
(41.8670°N, 1.8830°E)
Time: 01:10:38
(UTC+02:00)

X-37B - Pass Details

Date: 25 June 2021
Orbit: 383 x 392 km, 45.0° (Epoch: 01 July)

Event Time Altitude Azimuth Distance (km) Brightness Sun altitude
Rises 00:42:53 0° 276° (W) 2,254 4.8 -22.6°
Reaches altitude 10° 00:45:00 10° 283° (WNW) 1,401 3.8 -22.8°
Enters shadow 00:47:21 37° 320° (NW) 615 2.0 -22.9°
